GFSFLT1_con_lsi_315.txt.gz
Lid_Strength_Index
-2 -1 -1 -1 -1 -2 -2 -1 -1 -2 -2 -2 -2 -2 -2 -1 -1 -0 -1 0 -2 -2 -2 -2 -2 -2 -2 -2 -2 -2 -2 -2 -2
-2 -1 -1 -1 -1 -2 -2 -1 -1 -2 -2 -2 -2 -2 -2 -1 0 -0 -0 -1 -2 -2 -2 -2 -2 -2 -2 -2 -2 -2 -2 -2 -2
-1 -1 -1 -2 -2 -2 -2 -1 -1 -2 -2 -2 -2 -2 -1 -0 -0 0 -1 -2 -2 -2 -2 -2 -2 -2 -2 -2 -2 -2 -2 -2 -2
-1 -1 -1 -2 -2 -2 -2 -1 -1 -2 -2 -2 -2 -2 -1 -0 0 -0 -0 -2 -2 -2 -2 -2 -2 -2 -2 -2 -2 -2 -2 -2 -2
-1 -1 -1 -1 -1 -1 -1 -1 -2 -2 -2 -2 -2 -1 -1 0 0 0 -1 -2 -2 -2 -2 -2 -2 -2 -2 -2 -2 -2 -2 -2 -2
-0 -0 -0 -1 -1 -1 -1 -1 -2 -1 -1 -1 -1 -1 0 1 1 1 -2 -2 -2 -2 -2 -2 -2 -2 -2 -2 -2 -2 -2 -2 -2
-0 1 0 -1 -1 -1 -1 -1 -1 0 0 -0 -1 0 1 1 1 -0 -2 -2 -2 -2 -2 -2 -2 -2 -2 -2 -2 -2 -2 -2 -2
-0 -0 -0 -0 1 -0 -0 -0 -0 1 1 -0 -0 0 0 1 0 -1 -1 -2 -2 -2 -2 -2 -2 -1 -1 -2 -2 -2 -2 -2 -2
0 0 0 0 0 0 0 1 2 2 1 1 0 0 0 0 0 -0 -2 -2 -2 -2 -1 -2 -2 -2 -2 -2 -2 -2 -2 -2 -2
0 1 1 1 1 1 2 2 2 0 0 -0 0 0 1 1 0 0 -1 -2 -2 -2 -2 -2 -2 -2 -2 -2 -2 -2 -2 -2 -2
0 1 2 2 2 1 2 2 1 1 1 0 0 0 1 0 -0 -0 -0 -1 -2 -2 -2 -2 -2 -1 -2 -2 -2 -2 -2 -2 -2
0 1 1 1 1 2 2 2 3 2 1 0 0 1 1 0 0 0 0 -0 -1 -2 -2 -1 -1 -1 -2 -2 -2 -2 -2 -2 -2
1 1 1 1 1 1 2 3 3 2 2 1 1 1 1 1 1 2 1 0 1 -0 -1 -1 -1 -1 -2 -2 -2 -1 -1 -2 -1
2 2 2 1 1 1 2 3 3 3 2 2 2 2 1 1 1 1 2 2 3 2 -0 -1 -1 -2 -2 -2 -2 -2 -1 -1 -1
2 2 2 2 2 2 2 3 2 3 2 2 2 2 3 3 3 2 2 3 3 3 2 0 1 -1 -2 -2 -2 -1 -1 -1 -1
2 2 3 3 2 2 2 3 3 4 3 3 3 3 3 4 4 4 3 3 3 3 2 0 0 1 -1 -2 -2 -2 -1 -1 -1
1 2 3 3 2 3 2 3 4 4 2 4 4 5 4 4 5 5 4 4 4 3 2 2 1 1 1 -0 -1 -2 -2 -1 -0
1 2 2 3 3 2 2 3 3 3 3 3 5 6 7 5 4 6 5 5 4 4 3 2 2 2 2 1 1 -1 -2 -1 -1
1 2 3 3 3 2 2 2 2 3 4 3 4 5 5 7 7 6 6 5 5 5 4 3 3 2 3 3 3 1 -1 -2 -1
2 2 3 3 3 3 2 3 3 2 3 3 5 5 4 6 7 7 7 6 5 5 4 4 4 3 3 3 3 1 -1 -2 -1

GFSFLT1_con_lsi_318.txt.gz
Lid_Strength_Index
-1 -1 -1 -1 -1 -1 -2 -1 -2 -2 -2 -2 -2 -2 -2 -1 -0 0 -0 0 -2 -2 -2 -2 -2 -2 -2 -2 -2 -2 -2 -2 -2
-1 -1 -1 -1 -1 -1 -1 -1 -2 -2 -2 -2 -2 -2 -1 -0 0 0 0 -1 -2 -2 -2 -2 -2 -2 -2 -2 -2 -2 -2 -2 -2
-1 -1 -1 -1 -1 -1 -1 -2 -2 -2 -2 -2 -2 -2 -1 -0 0 -0 -0 -2 -2 -2 -2 -2 -2 -2 -2 -2 -2 -2 -2 -2 -2
-1 -1 -1 -1 -1 -1 -1 -1 -2 -2 -2 -2 -2 -1 -1 0 0 -0 -0 -2 -2 -2 -2 -2 -2 -2 -2 -2 -2 -1 -2 -2 -2
-1 -1 -1 -1 -1 -1 -1 -1 -1 -1 -2 -2 -2 -1 -1 0 0 0 -1 -2 -2 -2 -2 -2 -2 -2 -2 -2 -2 -2 -2 -2 -2
-0 0 -0 -1 -1 -1 -1 -1 -1 -1 -1 -1 -1 -1 0 1 1 0 -2 -2 -2 -2 -2 -2 -2 -2 -2 -2 -2 -2 -2 -2 -2
-0 1 0 -1 -1 -1 -1 -1 -1 -0 -0 -0 -0 1 2 1 1 -0 -2 -2 -2 -2 -2 -2 -2 -2 -2 -2 -2 -2 -2 -2 -2
0 -0 -0 -0 1 -0 -0 -0 -0 0 -0 1 0 2 1 1 1 -1 -2 -2 -2 -2 -2 -2 -2 -2 -2 -2 -2 -2 -2 -2 -2
-0 -0 -0 -0 -0 0 1 1 1 1 0 1 1 1 1 1 1 0 -1 -2 -2 -2 -1 -2 -2 -2 -2 -2 -2 -2 -2 -2 -2
0 -0 0 -0 0 0 1 2 2 1 0 0 -0 1 1 1 0 1 -1 -2 -2 -1 -2 -2 -2 -2 -2 -2 -2 -2 -2 -2 -2
1 0 1 1 1 1 1 2 1 1 1 1 1 1 0 0 0 -0 -0 -2 -1 -2 -2 -2 -2 -2 -2 -2 -2 -2 -2 -2 -2
1 0 1 1 1 1 3 2 2 0 0 1 1 -0 -0 -0 -0 0 -1 -1 -1 -2 -1 -1 -2 -2 -2 -2 -2 -2 -2 -2 -2
1 1 1 1 2 2 2 3 3 1 1 1 1 1 0 -0 0 1 1 2 1 -1 -1 -1 -1 -2 -2 -1 -2 -2 -1 -1 -1
1 1 1 2 2 2 2 4 2 2 2 1 2 1 1 1 1 2 2 3 3 3 -0 -0 -1 -1 -2 -2 -1 -1 -2 -1 -1
1 1 1 2 2 3 2 3 3 3 2 2 3 2 2 1 1 2 3 4 3 3 2 2 1 -0 -2 -2 -1 -1 -1 -2 -1
2 2 2 2 3 2 3 3 3 4 2 4 4 4 3 2 3 3 4 4 4 3 2 2 2 1 -1 -2 -2 -1 -2 -1 -1
2 2 2 2 2 3 2 2 3 3 1 3 4 6 4 4 4 4 4 4 4 4 3 1 1 2 1 -1 -2 -2 -1 -1 -1
2 2 3 2 2 3 2 2 3 3 2 3 5 6 7 5 5 6 5 5 5 4 3 2 1 1 1 0 -0 -1 -1 -1 -1
2 3 2 3 3 3 2 1 2 2 3 3 4 5 5 7 7 6 6 5 5 5 5 4 3 2 2 2 3 0 -1 -1 -1
2 2 3 3 3 3 2 2 2 2 3 3 5 5 5 6 7 9 8 6 5 5 5 4 4 3 3 3 3 2 -1 -2 -1

GFSFLT1_con_lsi_321.txt.gz
Lid_Strength_Index
-1 -1 -1 -1 -1 -1 -1 -1 -1 -1 -1 -2 -1 -1 -1 -1 0 0 -0 0 -2 -2 -2 -2 -2 -2 -2 -2 -2 -2 -2 -2 -2
-1 -1 -1 -1 -1 -1 -1 -1 -1 -1 -1 -2 -1 -2 -1 0 1 1 1 -0 -2 -2 -2 -2 -2 -2 -2 -2 -2 -2 -2 -2 -2
-1 -1 -1 -1 -1 -1 -1 -1 -2 -2 -2 -2 -1 -1 -1 -0 0 1 0 -1 -2 -2 -2 -2 -2 -2 -2 -2 -2 -2 -2 -2 -2
-1 -1 -1 -1 -1 -1 -1 -1 -1 -2 -2 -2 -2 -1 -1 0 0 -0 0 -1 -2 -2 -2 -2 -2 -2 -2 -1 -2 -2 -2 -2 -2
-1 -0 -1 -1 -1 -1 -1 -1 -1 -2 -1 -1 -1 -1 -1 0 0 0 -0 -2 -2 -2 -2 -2 -2 -2 -2 -1 -2 -2 -2 -2 -2
-0 0 0 -1 -1 -1 -1 -1 -1 -1 -1 -1 -1 -1 0 0 1 1 -2 -2 -2 -2 -2 -2 -2 -2 -2 -2 -2 -2 -2 -2 -2
-0 1 1 -0 -0 -1 -1 -1 -1 -0 -0 -1 -0 1 1 1 1 0 -2 -2 -2 -2 -2 -2 -2 -2 -2 -2 -2 -2 -2 -2 -2
0 -0 -0 -0 1 -0 -0 -0 1 0 0 1 2 2 1 1 1 -1 -2 -2 -2 -2 -2 -2 -2 -2 -2 -2 -2 -2 -2 -2 -2
0 -0 -0 -0 -0 1 1 1 1 0 1 1 1 2 2 2 2 -1 -2 -2 -2 -2 -1 -2 -1 -2 -2 -2 -2 -2 -2 -2 -2
1 1 0 0 -0 -0 1 1 1 0 1 2 0 1 2 2 2 1 -1 -2 -1 -2 -2 -2 -2 -2 -2 -2 -2 -2 -2 -2 -2
1 1 1 1 -0 1 2 1 1 1 1 0 0 0 1 1 2 1 -0 -1 -2 -2 -2 -2 -2 -2 -2 -2 -2 -2 -2 -2 -2
1 2 1 1 0 2 3 2 1 1 0 0 0 -0 1 0 1 -0 -0 -0 -1 -2 -2 -2 -2 -2 -2 -2 -2 -2 -2 -2 -2
1 1 1 1 1 1 2 2 1 1 1 1 1 0 -0 -0 -0 -0 -1 0 1 -1 -2 -2 -2 -2 -2 -2 -2 -1 -2 -2 -2
1 1 1 1 1 1 2 3 1 1 2 1 1 1 0 -0 0 1 1 2 3 2 -0 -1 -1 -2 -2 -1 -2 -1 -1 -1 -2
1 1 1 1 2 2 2 3 2 1 1 1 2 2 1 1 2 3 3 3 4 3 2 1 -0 -1 -2 -1 -1 -2 -2 -1 -1
1 1 1 2 2 3 2 3 3 2 2 4 4 4 3 2 3 2 3 4 4 3 3 2 0 -0 -1 -2 -1 -2 -2 -2 -1
1 1 2 2 3 3 2 2 3 4 3 3 5 6 4 4 3 3 4 4 4 4 3 2 2 1 -0 1 -1 -2 -1 -1 -2
1 1 2 2 3 4 3 1 2 3 2 3 4 6 6 5 5 4 4 5 5 4 4 2 2 2 0 -0 0 -0 -1 -1 -1
1 1 2 2 2 4 3 2 1 2 3 2 3 6 5 7 7 5 5 4 5 5 5 3 2 2 1 1 2 1 -1 -1 -1
1 1 2 2 3 4 3 3 2 1 2 3 4 6 6 6 8 7 7 6 5 5 5 3 3 2 2 2 2 1 -0 -1 -1

GFSFLT1_con_lsi_327.txt.gz
Lid_Strength_Index
-2 -2 -1 -1 -1 -1 -2 -2 -2 -2 -2 -2 -1 -1 -1 -1 -1 -1 -1 -1 -2 -2 -2 -2 -2 -2 -2 -2 -2 -2 -2 -2 -2
-2 -1 -1 -1 -1 -1 -2 -2 -2 -2 -2 -1 -1 -1 -1 -1 -1 -1 -1 -1 -2 -2 -2 -2 -2 -2 -2 -2 -2 -2 -2 -2 -2
-2 -2 -1 -1 -2 -1 -2 -2 -2 -2 -2 -1 -1 -1 -1 -1 -1 -1 -1 -2 -2 -2 -2 -2 -2 -2 -2 -2 -2 -2 -2 -2 -2
-1 -1 -1 -1 -1 -1 -1 -1 -1 -2 -2 -2 -1 -1 -1 -1 -1 -1 -1 -2 -2 -2 -2 -2 -2 -1 -2 -2 -2 -2 -2 -2 -2
-1 -0 -1 -1 -1 -1 -1 -1 -1 -1 -1 -2 -2 -1 -1 -1 -1 -1 -1 -3 -2 -2 -2 -2 -1 -2 -2 -2 -2 -2 -2 -2 -2
-1 0 -0 -1 -1 -1 -1 -1 -1 -1 -1 -1 -1 -1 -1 -1 -1 -1 -2 -2 -2 -2 -2 -1 -2 -2 -2 -2 -2 -2 -2 -2 -2
3 1 1 -1 -1 -1 -1 -1 -1 -1 -1 -1 -1 -1 -1 -1 -1 -1 -3 -2 -2 -2 -2 -1 -2 -2 -2 -2 -2 -2 -2 -2 -2
1 -1 -1 -0 1 -1 -1 -1 -1 -1 -1 -1 -1 -1 -1 -1 -1 -1 -2 -2 -2 -2 -2 -1 -2 -2 -2 -2 -2 -2 -2 -2 -2
3 -0 -1 -0 -1 -1 -1 -0 -0 -1 -0 -1 -1 -1 -1 -1 -1 -1 -1 -2 -2 -2 -2 -1 -2 -2 -2 -2 -2 -2 -2 -2 -2
7 -0 -1 -1 -1 -1 -0 0 0 -0 -0 -0 -1 -1 -1 -1 -1 -1 -1 -2 -2 -2 -2 -1 -2 -2 -2 -2 -2 -2 -2 -2 -2
6 0 -0 -0 -1 -1 -0 0 0 0 0 0 -0 -1 -1 -1 -1 -1 -1 -2 -2 -2 -2 -2 -2 -2 -2 -2 -2 -2 -2 -2 -2
7 3 0 -0 -0 -0 -0 1 0 1 -0 0 0 -1 -1 -1 -1 -1 -0 -1 -1 -2 -2 -2 -2 -2 -2 -2 -2 -2 -2 -2 -2
7 5 0 -0 -0 -0 0 1 1 1 0 1 1 -0 -0 -1 -1 -1 -0 -0 -1 -2 -2 -2 -2 -2 -2 -2 -2 -2 -2 -2 -2
6 6 0 -0 -0 0 0 1 2 1 1 1 1 0 -0 -0 -1 -1 -0 -0 -0 -0 -1 -1 -1 -2 -2 -2 -2 -2 -2 -2 -2
8 6 2 0 0 1 0 2 1 1 1 1 1 0 -0 -0 -0 -1 -0 -0 -0 -0 -1 -1 -1 -1 -2 -2 -2 -2 -2 -2 -2
11 8 5 0 1 1 1 2 2 3 1 2 2 2 0 0 0 -0 0 1 0 0 -0 -1 -2 -1 -1 -2 -2 -2 -2 -2 -1
10 8 7 0 1 2 1 1 3 3 1 3 3 5 3 2 1 1 1 2 1 1 1 -0 -1 -1 -1 -1 -2 -2 -2 -2 -1
11 9 7 2 2 2 2 1 2 3 1 1 3 6 6 4 3 3 2 2 2 1 1 0 -0 -0 -0 -0 -1 -1 -2 -2 -1
11 10 9 6 1 2 2 2 1 2 4 1 1 1 2 5 6 4 4 3 2 1 1 1 0 0 -0 1 1 1 -0 -1 -1
10 9 9 5 1 2 2 2 2 2 3 2 2 3 2 2 4 6 6 4 3 2 1 1 1 1 -0 -0 1 1 -0 -0 -2